Location: Unspecified
(0.0000°N, 0.0000°E)
Time: 15:19:00
(UTC+00:00)

STARLINK-35278 - Pass Details

Date: 19 February 2026
Orbit: 474 x 476 km, 53.2° (Epoch: 6 March)

Event Time Altitude Azimuth Distance (km) Brightness Sun altitude
Rises 19:14:02 0° 182° (S) 2,541 6.2 -14.8°
Reaches altitude 10° 19:17:11 10° 154° (SSE) 1,659 4.9 -15.5°
Enters shadow 19:18:13 12° 138° (SE) 1,510 4.6 -15.8°
